Voltar ao catálogo

SL-12 DEB

AtivoHEO
NORAD 41677·DEBRIS·🇷🇺 Russia

Lançado Oct 26, 2007 de Baikonur Cosmodrome

Loading…

Próximas Passagens (próximas 24 horas)

TLE

AtualizadoSource: Space-Track

Época: Sep 5, 2026, 22:27 UTC

1 41677U 07052J   26248.93609090  .00000029  00000-0  13867-3 0  9996
2 41677  64.9215 170.9924 5631739 222.7654  76.2173  4.38897307191251

Acompanhe SL-12 DEB em tempo real com AllMySat

Download on the App Store